iso_date,Year,Hour,Min,DOY,POS_DOY,Lat,Lon,BP,Ts,Ta,has_bp,has_ts,has_ta,BuoyID,Buoy_Type,Buoy_Owner,Logistics,Hemisphere
2022-08-01T16:00:02Z,2022,16,0,213.6667,213.6667,80.76715,6.26672,-999.0,10.0,-999.0,no,yes,no,300534062076090,NOMAD,AWI/USIABP,PolarStern,North
2022-08-01T16:59:57Z,2022,17,0,213.7083,213.7083,80.78573,6.85179,-999.0,5.6,-999.0,no,yes,no,300534062076090,NOMAD,AWI/USIABP,PolarStern,North
2022-08-01T18:00:00Z,2022,18,0,213.75,213.75,80.71919,6.26701,-999.0,4.1,-999.0,no,yes,no,300534062076090,NOMAD,AWI/USIABP,PolarStern,North
2022-08-01T19:00:02Z,2022,19,0,213.7917,213.7917,80.65384,5.71995,-999.0,3.3,-999.0,no,yes,no,300534062076090,NOMAD,AWI/USIABP,PolarStern,North
2022-08-01T19:59:57Z,2022,20,0,213.8333,213.8333,80.59599,5.4145,-999.0,2.0,-999.0,no,yes,no,300534062076090,NOMAD,AWI/USIABP,PolarStern,North
2022-08-01T21:00:00Z,2022,21,0,213.875,213.875,80.66099,5.26647,-999.0,1.1,-999.0,no,yes,no,300534062076090,NOMAD,AWI/USIABP,PolarStern,North
2022-08-01T22:00:02Z,2022,22,0,213.9167,213.9167,80.7658,4.99557,-999.0,0.8,-999.0,no,yes,no,300534062076090,NOMAD,AWI/USIABP,PolarStern,North
2022-08-01T22:59:57Z,2022,23,0,213.9583,213.9583,80.77069,4.92711,-999.0,1.0,-999.0,no,yes,no,300534062076090,NOMAD,AWI/USIABP,PolarStern,North
2022-08-02T00:00:00Z,2022,0,0,214.0,214.0,80.76833,5.30146,-999.0,1.0,-999.0,no,yes,no,300534062076090,NOMAD,AWI/USIABP,PolarStern,North
2022-08-02T01:00:02Z,2022,1,0,214.0417,214.0417,80.77351,5.31349,-999.0,1.0,-999.0,no,yes,no,300534062076090,NOMAD,AWI/USIABP,PolarStern,North
2022-08-02T01:59:57Z,2022,2,0,214.0833,214.0833,80.76655,5.66729,-999.0,1.0,-999.0,no,yes,no,300534062076090,NOMAD,AWI/USIABP,PolarStern,North
2022-08-02T03:00:00Z,2022,3,0,214.125,214.125,80.76392,5.93117,-999.0,0.8,-999.0,no,yes,no,300534062076090,NOMAD,AWI/USIABP,PolarStern,North
2022-08-02T04:00:02Z,2022,4,0,214.1667,214.1667,80.76551,6.00757,-999.0,0.8,-999.0,no,yes,no,300534062076090,NOMAD,AWI/USIABP,PolarStern,North
2022-08-02T04:59:57Z,2022,5,0,214.2083,214.2083,80.76628,6.33508,-999.0,0.8,-999.0,no,yes,no,300534062076090,NOMAD,AWI/USIABP,PolarStern,North
2022-08-02T06:00:00Z,2022,6,0,214.25,214.25,80.76585,6.6596,-999.0,0.9,-999.0,no,yes,no,300534062076090,NOMAD,AWI/USIABP,PolarStern,North
2022-08-02T07:00:02Z,2022,7,0,214.2917,214.2917,80.76705,6.66803,-999.0,1.3,-999.0,no,yes,no,300534062076090,NOMAD,AWI/USIABP,PolarStern,North
2022-08-02T07:59:57Z,2022,8,0,214.3333,214.3333,80.67375,7.08983,-999.0,1.2,-999.0,no,yes,no,300534062076090,NOMAD,AWI/USIABP,PolarStern,North
2022-08-02T09:00:00Z,2022,9,0,214.375,214.375,80.57473,7.3919,-999.0,1.6,-999.0,no,yes,no,300534062076090,NOMAD,AWI/USIABP,PolarStern,North
2022-08-02T10:00:02Z,2022,10,0,214.4167,214.4167,80.5466,7.0699,-999.0,1.8,-999.0,no,yes,no,300534062076090,NOMAD,AWI/USIABP,PolarStern,North
2022-08-02T10:59:57Z,2022,11,0,214.4583,214.4583,80.53757,6.9983,-999.0,2.1,-999.0,no,yes,no,300534062076090,NOMAD,AWI/USIABP,PolarStern,North
2022-08-02T12:00:00Z,2022,12,0,214.5,214.5,80.53286,6.93718,-999.0,2.6,-999.0,no,yes,no,300534062076090,NOMAD,AWI/USIABP,PolarStern,North
2022-08-02T13:00:02Z,2022,13,0,214.5417,214.5417,80.40229,6.4142,-999.0,3.6,-999.0,no,yes,no,300534062076090,NOMAD,AWI/USIABP,PolarStern,North
2022-08-02T13:59:57Z,2022,14,0,214.5833,214.5833,80.26219,5.81639,-999.0,4.8,-999.0,no,yes,no,300534062076090,NOMAD,AWI/USIABP,PolarStern,North
2022-08-02T15:00:00Z,2022,15,0,214.625,214.625,80.12066,5.22045,-999.0,5.2,-999.0,no,yes,no,300534062076090,NOMAD,AWI/USIABP,PolarStern,North
2022-08-02T16:00:02Z,2022,16,0,214.6667,214.6667,79.97964,4.63404,-999.0,5.2,-999.0,no,yes,no,300534062076090,NOMAD,AWI/USIABP,PolarStern,North
2022-08-02T16:59:57Z,2022,17,0,214.7083,214.7083,79.84036,4.06495,-999.0,4.9,-999.0,no,yes,no,300534062076090,NOMAD,AWI/USIABP,PolarStern,North
2022-08-02T18:00:00Z,2022,18,0,214.75,214.75,79.69841,3.49134,-999.0,4.3,-999.0,no,yes,no,300534062076090,NOMAD,AWI/USIABP,PolarStern,North
2022-08-02T19:00:02Z,2022,19,0,214.7917,214.7917,79.55664,2.92696,-999.0,4.1,-999.0,no,yes,no,300534062076090,NOMAD,AWI/USIABP,PolarStern,North
2022-08-02T19:59:57Z,2022,20,0,214.8333,214.8333,79.43828,2.22942,-999.0,3.3,-999.0,no,yes,no,300534062076090,NOMAD,AWI/USIABP,PolarStern,North
2022-08-02T21:00:00Z,2022,21,0,214.875,214.875,79.32795,1.50493,-999.0,2.5,-999.0,no,yes,no,300534062076090,NOMAD,AWI/USIABP,PolarStern,North
2022-08-02T22:00:02Z,2022,22,0,214.9167,214.9167,79.21841,0.79531,-999.0,1.3,-999.0,no,yes,no,300534062076090,NOMAD,AWI/USIABP,PolarStern,North
2022-08-02T22:59:57Z,2022,23,0,214.9583,214.9583,79.14842,0.34021,-999.0,0.5,-999.0,no,yes,no,300534062076090,NOMAD,AWI/USIABP,PolarStern,North
2022-08-03T00:00:00Z,2022,0,0,215.0,215.0,79.0854,-0.05393,-999.0,0.2,-999.0,no,yes,no,300534062076090,NOMAD,AWI/USIABP,PolarStern,North
2022-08-03T01:00:02Z,2022,1,0,215.0417,215.0417,79.03206,-0.39416,-999.0,0.0,-999.0,no,yes,no,300534062076090,NOMAD,AWI/USIABP,PolarStern,North
2022-08-03T01:59:57Z,2022,2,0,215.0833,215.0833,79.00105,-0.89801,-999.0,-0.2,-999.0,no,yes,no,300534062076090,NOMAD,AWI/USIABP,PolarStern,North
2022-08-03T03:00:00Z,2022,3,0,215.125,215.125,79.00101,-0.89693,-999.0,0.0,-999.0,no,yes,no,300534062076090,NOMAD,AWI/USIABP,PolarStern,North
2022-08-03T04:00:02Z,2022,4,0,215.1667,215.1667,79.00398,-2.04078,-999.0,0.1,-999.0,no,yes,no,300534062076090,NOMAD,AWI/USIABP,PolarStern,North
2022-08-03T04:59:57Z,2022,5,0,215.2083,215.2083,79.00386,-2.58987,-999.0,0.3,-999.0,no,yes,no,300534062076090,NOMAD,AWI/USIABP,PolarStern,North
2022-08-03T06:00:00Z,2022,6,0,215.25,215.25,79.00613,-3.1069,-999.0,0.4,-999.0,no,yes,no,300534062076090,NOMAD,AWI/USIABP,PolarStern,North
2022-08-03T07:00:02Z,2022,7,0,215.2917,215.2917,78.98608,-3.44184,-999.0,0.7,-999.0,no,yes,no,300534062076090,NOMAD,AWI/USIABP,PolarStern,North
2022-08-03T07:59:57Z,2022,8,0,215.3333,215.3333,78.98233,-3.79171,-999.0,0.8,-999.0,no,yes,no,300534062076090,NOMAD,AWI/USIABP,PolarStern,North
2022-08-03T09:00:00Z,2022,9,0,215.375,215.375,78.95927,-4.18682,-999.0,0.9,-999.0,no,yes,no,300534062076090,NOMAD,AWI/USIABP,PolarStern,North
2022-08-03T10:00:02Z,2022,10,0,215.4167,215.4167,78.94489,-4.52152,-999.0,0.8,-999.0,no,yes,no,300534062076090,NOMAD,AWI/USIABP,PolarStern,North
2022-08-03T10:59:57Z,2022,11,0,215.4583,215.4583,78.92367,-4.99901,-999.0,1.0,-999.0,no,yes,no,300534062076090,NOMAD,AWI/USIABP,PolarStern,North
2022-08-03T12:00:00Z,2022,12,0,215.5,215.5,78.97556,-5.42621,-999.0,1.0,-999.0,no,yes,no,300534062076090,NOMAD,AWI/USIABP,PolarStern,North
2022-08-03T13:00:02Z,2022,13,0,215.5417,215.5417,78.98735,-5.35316,-999.0,1.0,-999.0,no,yes,no,300534062076090,NOMAD,AWI/USIABP,PolarStern,North
2022-08-03T13:59:57Z,2022,14,0,215.5833,215.5833,78.98376,-5.38878,-999.0,1.3,-999.0,no,yes,no,300534062076090,NOMAD,AWI/USIABP,PolarStern,North
2022-08-03T15:00:00Z,2022,15,0,215.625,215.625,78.98147,-5.44031,-999.0,1.7,-999.0,no,yes,no,300534062076090,NOMAD,AWI/USIABP,PolarStern,North
2022-08-03T16:00:02Z,2022,16,0,215.6667,215.6667,79.00159,-5.33999,-999.0,1.8,-999.0,no,yes,no,300534062076090,NOMAD,AWI/USIABP,PolarStern,North
2022-08-03T16:59:57Z,2022,17,0,215.7083,215.7083,78.99898,-5.36407,-999.0,1.9,-999.0,no,yes,no,300534062076090,NOMAD,AWI/USIABP,PolarStern,North
2022-08-03T18:00:00Z,2022,18,0,215.75,215.75,78.98113,-5.37908,-999.0,2.0,-999.0,no,yes,no,300534062076090,NOMAD,AWI/USIABP,PolarStern,North
2022-08-03T19:00:02Z,2022,19,0,215.7917,215.7917,78.98223,-5.4163,-999.0,1.6,-999.0,no,yes,no,300534062076090,NOMAD,AWI/USIABP,PolarStern,North
2022-08-03T19:59:57Z,2022,20,0,215.8333,215.8333,78.98206,-5.43464,-999.0,1.3,-999.0,no,yes,no,300534062076090,NOMAD,AWI/USIABP,PolarStern,North
2022-08-03T21:00:00Z,2022,21,0,215.875,215.875,78.98254,-5.45261,-999.0,1.1,-999.0,no,yes,no,300534062076090,NOMAD,AWI/USIABP,PolarStern,North
2022-08-03T22:00:02Z,2022,22,0,215.9167,215.9167,78.98293,-5.45932,-999.0,1.0,-999.0,no,yes,no,300534062076090,NOMAD,AWI/USIABP,PolarStern,North
2022-08-03T22:59:57Z,2022,23,0,215.9583,215.9583,78.97836,-5.47492,-999.0,0.9,-999.0,no,yes,no,300534062076090,NOMAD,AWI/USIABP,PolarStern,North
2022-08-04T00:00:00Z,2022,0,0,216.0,216.0,78.97649,-5.47469,-999.0,0.8,-999.0,no,yes,no,300534062076090,NOMAD,AWI/USIABP,PolarStern,North
2022-08-04T01:00:02Z,2022,1,0,216.0417,216.0417,78.97448,-5.49504,-999.0,0.7,-999.0,no,yes,no,300534062076090,NOMAD,AWI/USIABP,PolarStern,North
2022-08-04T01:59:57Z,2022,2,0,216.0833,216.0833,78.97516,-5.51096,-999.0,0.7,-999.0,no,yes,no,300534062076090,NOMAD,AWI/USIABP,PolarStern,North
2022-08-04T03:00:00Z,2022,3,0,216.125,216.125,78.98873,-6.27619,-999.0,0.4,-999.0,no,yes,no,300534062076090,NOMAD,AWI/USIABP,PolarStern,North
2022-08-04T04:00:02Z,2022,4,0,216.1667,216.1667,78.98443,-6.91921,-999.0,0.3,-999.0,no,yes,no,300534062076090,NOMAD,AWI/USIABP,PolarStern,North
2022-08-04T04:59:57Z,2022,5,0,216.2083,216.2083,78.98008,-7.76876,-999.0,0.2,-999.0,no,yes,no,300534062076090,NOMAD,AWI/USIABP,PolarStern,North
2022-08-04T06:00:00Z,2022,6,0,216.25,216.25,78.99345,-8.59734,-999.0,0.2,-999.0,no,yes,no,300534062076090,NOMAD,AWI/USIABP,PolarStern,North
2022-08-04T07:00:02Z,2022,7,0,216.2917,216.2917,78.9987,-9.28716,-999.0,0.1,-999.0,no,yes,no,300534062076090,NOMAD,AWI/USIABP,PolarStern,North
2022-08-04T07:59:57Z,2022,8,0,216.3333,216.3333,79.00104,-10.05388,-999.0,0.0,-999.0,no,yes,no,300534062076090,NOMAD,AWI/USIABP,PolarStern,North
2022-08-04T09:00:00Z,2022,9,0,216.375,216.375,79.00177,-10.49454,-999.0,-0.2,-999.0,no,yes,no,300534062076090,NOMAD,AWI/USIABP,PolarStern,North
2022-08-04T10:00:02Z,2022,10,0,216.4167,216.4167,78.88577,-10.60276,-999.0,0.1,-999.0,no,yes,no,300534062076090,NOMAD,AWI/USIABP,PolarStern,North
2022-08-04T10:59:57Z,2022,11,0,216.4583,216.4583,78.79388,-10.75904,-999.0,0.1,-999.0,no,yes,no,300534062076090,NOMAD,AWI/USIABP,PolarStern,North
2022-08-04T12:00:00Z,2022,12,0,216.5,216.5,78.69005,-10.88748,-999.0,0.5,-999.0,no,yes,no,300534062076090,NOMAD,AWI/USIABP,PolarStern,North
2022-08-04T13:00:02Z,2022,13,0,216.5417,216.5417,78.58807,-10.91072,-999.0,2.1,-999.0,no,yes,no,300534062076090,NOMAD,AWI/USIABP,PolarStern,North
2022-08-04T13:59:57Z,2022,14,0,216.5833,216.5833,78.54995,-11.3576,-999.0,1.4,-999.0,no,yes,no,300534062076090,NOMAD,AWI/USIABP,PolarStern,North
2022-08-04T15:00:00Z,2022,15,0,216.625,216.625,78.51242,-11.83041,-999.0,1.3,-999.0,no,yes,no,300534062076090,NOMAD,AWI/USIABP,PolarStern,North
2022-08-04T16:00:02Z,2022,16,0,216.6667,216.6667,78.51524,-12.33148,-999.0,1.0,-999.0,no,yes,no,300534062076090,NOMAD,AWI/USIABP,PolarStern,North
2022-08-04T16:59:57Z,2022,17,0,216.7083,216.7083,78.47547,-12.5548,-999.0,3.6,-999.0,no,yes,no,300534062076090,NOMAD,AWI/USIABP,PolarStern,North
2022-08-04T18:00:00Z,2022,18,0,216.75,216.75,78.46952,-12.53927,-999.0,2.6,-999.0,no,yes,no,300534062076090,NOMAD,AWI/USIABP,PolarStern,North
2022-08-04T19:00:02Z,2022,19,0,216.7917,216.7917,78.44336,-12.4667,-999.0,2.3,-999.0,no,yes,no,300534062076090,NOMAD,AWI/USIABP,PolarStern,North
2022-08-04T19:59:57Z,2022,20,0,216.8333,216.8333,78.44146,-12.96055,-999.0,4.0,-999.0,no,yes,no,300534062076090,NOMAD,AWI/USIABP,PolarStern,North
2022-08-04T21:00:00Z,2022,21,0,216.875,216.875,78.41046,-13.30379,-999.0,3.6,-999.0,no,yes,no,300534062076090,NOMAD,AWI/USIABP,PolarStern,North
2022-08-04T22:00:02Z,2022,22,0,216.9167,216.9167,78.41091,-13.30375,-999.0,3.8,-999.0,no,yes,no,300534062076090,NOMAD,AWI/USIABP,PolarStern,North
2022-08-04T22:59:57Z,2022,23,0,216.9583,216.9583,78.41046,-13.29791,-999.0,3.1,-999.0,no,yes,no,300534062076090,NOMAD,AWI/USIABP,PolarStern,North
2022-08-05T00:00:00Z,2022,0,0,217.0,217.0,78.40944,-13.29513,-999.0,2.1,-999.0,no,yes,no,300534062076090,NOMAD,AWI/USIABP,PolarStern,North
2022-08-05T01:00:02Z,2022,1,0,217.0417,217.0417,78.4083,-13.29568,-999.0,1.7,-999.0,no,yes,no,300534062076090,NOMAD,AWI/USIABP,PolarStern,North
2022-08-05T03:00:00Z,2022,3,0,217.125,217.125,78.43159,-13.75291,-999.0,0.8,-999.0,no,yes,no,300534062076090,NOMAD,AWI/USIABP,PolarStern,North
2022-08-05T04:00:02Z,2022,4,0,217.1667,217.1667,78.40552,-14.06779,-999.0,0.7,-999.0,no,yes,no,300534062076090,NOMAD,AWI/USIABP,PolarStern,North
2022-08-05T04:59:57Z,2022,5,0,217.2083,217.2083,78.40662,-14.43205,-999.0,0.8,-999.0,no,yes,no,300534062076090,NOMAD,AWI/USIABP,PolarStern,North
2022-08-05T06:00:00Z,2022,6,0,217.25,217.25,78.44525,-14.6552,-999.0,1.2,-999.0,no,yes,no,300534062076090,NOMAD,AWI/USIABP,PolarStern,North
2022-08-05T07:00:02Z,2022,7,0,217.2917,217.2917,78.46509,-15.15504,-999.0,1.3,-999.0,no,yes,no,300534062076090,NOMAD,AWI/USIABP,PolarStern,North
2022-08-05T07:59:57Z,2022,8,0,217.3333,217.3333,78.4741,-15.44955,-999.0,1.7,-999.0,no,yes,no,300534062076090,NOMAD,AWI/USIABP,PolarStern,North
2022-08-05T09:00:00Z,2022,9,0,217.375,217.375,78.47808,-15.69475,-999.0,1.7,-999.0,no,yes,no,300534062076090,NOMAD,AWI/USIABP,PolarStern,North
2022-08-05T10:00:02Z,2022,10,0,217.4167,217.4167,78.4781,-16.20441,-999.0,2.0,-999.0,no,yes,no,300534062076090,NOMAD,AWI/USIABP,PolarStern,North
2022-08-05T10:59:57Z,2022,11,0,217.4583,217.4583,78.47787,-16.75358,-999.0,2.3,-999.0,no,yes,no,300534062076090,NOMAD,AWI/USIABP,PolarStern,North
2022-08-05T12:00:00Z,2022,12,0,217.5,217.5,78.47708,-17.30826,-999.0,2.7,-999.0,no,yes,no,300534062076090,NOMAD,AWI/USIABP,PolarStern,North
2022-08-05T13:00:02Z,2022,13,0,217.5417,217.5417,78.47215,-17.71629,-999.0,3.0,-999.0,no,yes,no,300534062076090,NOMAD,AWI/USIABP,PolarStern,North
2022-08-05T13:59:57Z,2022,14,0,217.5833,217.5833,78.46249,-18.10101,-999.0,3.3,-999.0,no,yes,no,300534062076090,NOMAD,AWI/USIABP,PolarStern,North
2022-08-05T15:00:00Z,2022,15,0,217.625,217.625,78.45527,-18.23117,-999.0,3.4,-999.0,no,yes,no,300534062076090,NOMAD,AWI/USIABP,PolarStern,North
2022-08-05T16:00:02Z,2022,16,0,217.6667,217.6667,78.44502,-18.32151,-999.0,3.6,-999.0,no,yes,no,300534062076090,NOMAD,AWI/USIABP,PolarStern,North
2022-08-05T16:59:57Z,2022,17,0,217.7083,217.7083,78.44507,-18.4165,-999.0,3.6,-999.0,no,yes,no,300534062076090,NOMAD,AWI/USIABP,PolarStern,North
2022-08-06T22:00:02Z,2022,22,0,218.9167,218.9167,78.39921,-16.62402,-999.0,2.0,-999.0,no,yes,no,300534062076090,NOMAD,AWI/USIABP,PolarStern,North
2022-08-06T22:59:57Z,2022,23,0,218.9583,218.9583,78.36563,-16.15036,-999.0,1.5,-999.0,no,yes,no,300534062076090,NOMAD,AWI/USIABP,PolarStern,North
2022-08-07T00:00:00Z,2022,0,0,219.0,219.0,78.31326,-15.90156,-999.0,1.3,-999.0,no,yes,no,300534062076090,NOMAD,AWI/USIABP,PolarStern,North
2022-10-24T00:00:00Z,2022,0,0,297.0,297.0,-52.12667,-25.01326,-999.0,1.3,-999.0,no,yes,no,300534062076090,NOMAD,AWI/USIABP,PolarStern,North
2022-10-24T01:00:02Z,2022,1,0,297.0417,297.0417,-52.11525,-24.97366,-999.0,1.4,-999.0,no,yes,no,300534062076090,NOMAD,AWI/USIABP,PolarStern,North
2022-10-24T01:59:57Z,2022,2,0,297.0833,297.0833,-52.10452,-24.94276,-999.0,1.3,-999.0,no,yes,no,300534062076090,NOMAD,AWI/USIABP,PolarStern,North
2022-10-24T03:00:00Z,2022,3,0,297.125,297.125,-52.09081,-24.9004,-999.0,1.4,-999.0,no,yes,no,300534062076090,NOMAD,AWI/USIABP,PolarStern,North
2022-10-24T04:00:02Z,2022,4,0,297.1667,297.1667,-52.08093,-24.87069,-999.0,1.3,-999.0,no,yes,no,300534062076090,NOMAD,AWI/USIABP,PolarStern,North
2022-10-24T04:59:57Z,2022,5,0,297.2083,297.2083,-52.07431,-24.84318,-999.0,1.3,-999.0,no,yes,no,300534062076090,NOMAD,AWI/USIABP,PolarStern,North
2022-10-24T06:00:00Z,2022,6,0,297.25,297.25,-52.07077,-24.82021,-999.0,1.3,-999.0,no,yes,no,300534062076090,NOMAD,AWI/USIABP,PolarStern,North
2022-10-24T07:00:02Z,2022,7,0,297.2917,297.2917,-52.06925,-24.78976,-999.0,1.4,-999.0,no,yes,no,300534062076090,NOMAD,AWI/USIABP,PolarStern,North
2022-10-25T00:00:00Z,2022,0,0,298.0,298.0,-52.13617,-24.15399,-999.0,1.4,-999.0,no,yes,no,300534062076090,NOMAD,AWI/USIABP,PolarStern,North
2022-10-25T01:00:02Z,2022,1,0,298.0417,298.0417,-52.1451,-24.11865,-999.0,1.5,-999.0,no,yes,no,300534062076090,NOMAD,AWI/USIABP,PolarStern,North
2022-10-25T01:59:57Z,2022,2,0,298.0833,298.0833,-52.15375,-24.08743,-999.0,1.4,-999.0,no,yes,no,300534062076090,NOMAD,AWI/USIABP,PolarStern,North
2022-10-25T03:00:00Z,2022,3,0,298.125,298.125,-52.16337,-24.04453,-999.0,1.4,-999.0,no,yes,no,300534062076090,NOMAD,AWI/USIABP,PolarStern,North
2022-10-25T04:00:02Z,2022,4,0,298.1667,298.1667,-52.16789,-24.02197,-999.0,1.4,-999.0,no,yes,no,300534062076090,NOMAD,AWI/USIABP,PolarStern,North
2022-10-25T04:59:57Z,2022,5,0,298.2083,298.2083,-52.17803,-23.97918,-999.0,1.4,-999.0,no,yes,no,300534062076090,NOMAD,AWI/USIABP,PolarStern,North
2022-10-25T06:00:00Z,2022,6,0,298.25,298.25,-52.18521,-23.95459,-999.0,1.4,-999.0,no,yes,no,300534062076090,NOMAD,AWI/USIABP,PolarStern,North
2022-10-25T07:00:02Z,2022,7,0,298.2917,298.2917,-52.19666,-23.91995,-999.0,1.4,-999.0,no,yes,no,300534062076090,NOMAD,AWI/USIABP,PolarStern,North
